User: anonymous
Location: Mentone
(34.5413°N, 85.5351°W)
Time: 02:29:39
(UTC-05:00)
Language:

Cosmos 2150 Rocket - Orbit

View from above orbital plane
View from above orbital plane
View from above satellite
View from above satellite

Ground track
Ground track

The orbit data is extracted from the following two-line orbital elements,

1 21419U 91041B   14234.81485108  .00000079  00000-0  37491-4 0  6037
2 21419 074.0424 021.9656 0041326 201.5071 263.0600 14.33555893212942
Epoch (UTC): 22 August 2014 19:33:23
Eccentricity: 0.0041326
inclination: 74.0424°
perigee height: 750 km
apogee height: 809 km
right ascension of ascending node: 21.9656°
argument of perigee: 201.5071°
revolutions per day: 14.33555893
mean anomaly at epoch: 263.0600°
orbit number at epoch: 21294

The dashed part of the orbit path shows where the satellite is in the earth's shadow,  

DLR